Location: Anjeux
(47.8815°N, 6.2076°E)
Time: 10:43:47
(UTC+00:00)

AO-27 - Pass Details

Date: 18 December 2021
Orbit: 784 x 798 km, 98.9° (Epoch: 23 January)

Event Time Altitude Azimuth Distance (km) Brightness Sun altitude
Rises 19:21:38 0° 207° (SSW) 3,291 11.1 -35.3°
Reaches altitude 10° 19:24:39 10° 225° (SW) 2,368 10.5 -35.8°
Maximum altitude 19:28:16 19° 270° (W) 1,835 10.1 -36.4°
Drops below altitude 10° 19:31:55 10° 314° (NW) 2,379 10.6 -37.0°
Sets 19:34:58 0° 332° (NNW) 3,313 11.3 -37.5°
